Waarnemingen

Advertentie
Mijn weer
Andernach, Duitsland (10520): temperatuur & dauwpunt: 23.03.2017 01:00:00 - 29.03.2017 01:00:00 (CEST)Andernach, Duitsland (10520): temperatuur 5cm & temperatuur -5cm: 23.03.2017 01:00:00 - 29.03.2017 01:00:00 (CEST)Andernach, Duitsland (10520): temperatuur -20cm & temperatuur -100cm: 23.03.2017 01:00:00 - 29.03.2017 01:00:00 (CEST)Andernach, Duitsland (10520): windsnelheid & windstoten: 23.03.2017 01:00:00 - 29.03.2017 01:00:00 (CEST)Andernach, Duitsland (10520): windrichting: 23.03.2017 01:00:00 - 29.03.2017 01:00:00 (CEST)Andernach, Duitsland (10520): luchtdruk: 23.03.2017 01:00:00 - 29.03.2017 01:00:00 (CEST)Andernach, Duitsland (10520): zicht: 23.03.2017 01:00:00 - 29.03.2017 01:00:00 (CEST)Andernach, Duitsland (10520): Zonneschijnduur: 23.03.2017 01:00:00 - 29.03.2017 01:00:00 (CEST)Andernach, Duitsland (10520): neerslag: 23.03.2017 01:00:00 - 29.03.2017 01:00:00 (CEST)
Datum & Tijd tt [°C] td [°C] tt 5cm [°C] tt -5cm [°C] tt -20cm [°C] tt -100cm [°C] ff [km/u] ff [kn] fx [km/u] fx [kn] dd ppp [hPa] vv [km] sd [min] rr [mm]
29.03.2017 01:00:00 10,1 6,2 5,8 11,7 12,1 8,3 2 1 11 6 O 1024,6 62 0 0,0
29.03.2017 00:00:00 12,0 6,5 9,4 12,7 12,3 8,3 10 6 14 7 ZZW 1024,1 52 0 0,0
28.03.2017 23:00:00 15,3 6,7 12,3 13,6 12,5 8,3 8 4 14 8 WZW 1023,3 67 0 0,0
28.03.2017 22:00:00 16,6 6,1 10,6 14,6 12,5 8,2 4 2 16 9 NW 1022,5 70 0 0,0
28.03.2017 21:00:00 17,3 5,9 13,4 15,9 12,5 8,2 7 4 15 8 WZW 1021,9 70 0 0,0
28.03.2017 20:00:00 19,1 5,5 15,7 17,4 12,3 8,2 9 5 25 13 WZW 1021,0 70 13 0,0
28.03.2017 19:00:00 20,8 5,4 19,5 18,7 11,9 8,2 15 8 26 14 W 1020,5 70 55 0,0
28.03.2017 18:00:00 21,5 5,8 21,3 19,6 11,4 8,2 19 10 35 19 WZW 1020,1 70 37 0,0
28.03.2017 17:00:00 22,1 6,2 24,3 20,2 10,7 8,2 19 10 33 18 ZW 1020,2 58 48 0,0
28.03.2017 16:00:00 22,2 5,2 25,0 20,0 10,0 8,2 19 10 34 19 WZW 1020,4 45 60 0,0
28.03.2017 15:00:00 21,1 6,3 22,8 19,0 9,2 8,2 17 9 29 16 ZW 1020,8 60 53 0,0
28.03.2017 14:00:00 20,6 8,2 24,6 17,3 8,6 8,2 10 5 18 10 ZZO 1021,2 37 60 0,0
28.03.2017 13:00:00 16,4 6,1 20,9 14,4 8,2 8,2 4 2 10 6 O 1022,1 37 60 0,0
28.03.2017 12:00:00 12,5 2,6 16,9 11,4 7,9 8,2 5 3 10 6 ONO 1022,8 31 60 0,0
28.03.2017 11:00:00 10,0 2,4 13,3 8,4 7,9 8,2 3 2 6 3 OZO 1023,1 33 60 0,0
28.03.2017 10:00:00 7,8 2,3 9,6 5,8 8,0 8,2 3 1 6 3 ZO 1023,3 29 60 0,0
28.03.2017 09:00:00 4,8 1,4 5,0 4,1 8,3 8,2 2 1 6 4 Z 1023,4 27 60 0,0
28.03.2017 08:00:00 1,5 -0,6 -0,4 4,1 8,6 8,2 5 3 8 4 ZZW 1023,4 29 8 0,0
28.03.2017 07:00:00 1,1 -0,6 -2,7 4,5 8,9 8,2 5 3 7 4 ZZW 1023,0 33 0 0,0
28.03.2017 06:00:00 1,4 -0,5 -2,0 4,9 9,3 8,2 6 4 8 4 ZZW 1022,9 34 0 0,0
28.03.2017 05:00:00 1,4 -0,2 -2,9 5,4 9,6 8,2 5 3 8 4 ZZW 1022,7 34 0 0,0
28.03.2017 04:00:00 2,0 0,0 -2,6 6,0 10,0 8,2 5 3 8 4 ZZW 1022,9 38 0 0,0
28.03.2017 03:00:00 2,5 0,4 -2,4 6,8 10,3 8,2 5 3 8 4 ZZW 1023,4 41 0 0,0
28.03.2017 02:00:00 3,6 0,5 -1,5 7,6 10,7 8,2 4 2 9 5 ZZW 1023,0 42 0 0,0
28.03.2017 01:00:00 4,1 0,8 -0,8 8,4 11,0 8,2 5 3 9 5 Z 1022,9 44 0 0,0
28.03.2017 00:00:00 5,4 1,2 0,4 9,5 11,3 8,2 4 2 8 4 ZZW 1022,8 46 0 0,0
27.03.2017 23:00:00 7,9 0,9 1,2 10,6 11,6 8,2 3 2 8 5 ZZW 1022,7 53 0 0,0
27.03.2017 22:00:00 9,5 0,7 2,9 12,0 11,8 8,2 5 3 10 5 ZZW 1022,3 70 0 0,0
27.03.2017 21:00:00 10,0 1,5 3,1 13,8 11,8 8,2 5 3 9 5 Z 1021,6 70 0 0,0
27.03.2017 20:00:00 15,3 -1,1 11,4 15,7 11,6 8,1 10 6 16 8 Z 1021,1 70 45 0,0
27.03.2017 19:00:00 17,8 -1,5 16,6 17,4 11,2 8,1 9 5 20 11 ZZO 1020,8 70 60 0,0
27.03.2017 18:00:00 18,5 -2,1 19,1 18,4 10,8 8,1 9 5 21 11 ZO 1021,1 69 60 0,0
27.03.2017 17:00:00 18,0 -2,5 19,6 18,7 10,2 8,1 14 7 29 15 ZO 1021,6 53 60 0,0
27.03.2017 16:00:00 18,0 -1,8 20,6 18,3 9,5 8,1 12 6 28 15 O 1022,1 46 60 0,0
27.03.2017 15:00:00 16,7 -4,1 19,9 17,4 8,9 8,1 15 8 29 16 OZO 1022,9 44 60 0,0
27.03.2017 14:00:00 15,7 -2,2 19,9 15,8 8,3 8,1 12 6 24 13 OZO 1023,7 48 60 0,0
27.03.2017 13:00:00 15,0 1,0 19,1 13,4 7,9 8,1 11 6 20 11 ZO 1024,5 52 60 0,0
27.03.2017 12:00:00 12,3 -0,5 16,3 10,6 7,7 8,1 9 5 19 10 ZO 1025,2 52 60 0,0
27.03.2017 11:00:00 10,5 0,9 13,7 8,0 7,7 8,1 11 6 19 10 OZO 1025,6 40 60 0,0
27.03.2017 10:00:00 7,5 2,8 9,0 5,4 7,9 8,1 2 1 5 3 OZO 1025,8 29 60 0,0
27.03.2017 09:00:00 4,3 1,5 4,1 3,9 8,2 8,1 2 1 7 4 Z 1025,8 21 60 0,0
27.03.2017 08:00:00 0,8 -0,5 -1,0 4,1 8,5 8,1 6 3 9 5 ZZW 1025,5 25 11 0,0
27.03.2017 07:00:00 0,6 -0,5 -2,3 4,5 8,8 8,1 6 3 10 5 ZZW 1025,3 29 0 0,0
27.03.2017 06:00:00 1,2 -0,1 -1,4 4,9 9,1 8,1 6 3 8 5 ZZW 1024,9 32 0 0,0
27.03.2017 05:00:00 1,6 0,3 -0,8 5,5 9,5 8,1 6 4 9 5 ZZW 1024,6 34 0 0,0
27.03.2017 04:00:00 2,2 0,7 -0,5 6,2 9,8 8,1 7 4 10 5 ZZW 1024,8 34 0 0,0
27.03.2017 03:00:00 3,2 1,1 0,3 6,8 10,2 8,1 7 4 9 5 ZZW 1024,9 41 0 0,0
27.03.2017 02:00:00 4,0 1,6 0,2 7,6 10,5 8,1 6 3 10 5 ZZW 1024,9 46 0 0,0
27.03.2017 01:00:00 4,6 2,1 1,2 8,5 10,8 8,1 5 3 10 5 ZZW 1024,9 44 0 0,0
27.03.2017 00:00:00 5,8 2,4 2,6 9,4 11,1 8,1 8 5 10 5 ZZW 1024,8 46 0 0,0
26.03.2017 23:00:00 7,1 2,8 1,6 10,5 11,4 8,1 3 2 6 4 WZW 1024,6 53 0 0,0
26.03.2017 22:00:00 8,9 2,5 2,2 11,9 11,6 8,1 2 1 6 3 Z 1024,2 70 0 0,0
26.03.2017 21:00:00 11,7 1,8 4,0 13,5 11,6 8,1 2 1 13 7 ZZO 1023,3 70 0 0,0
26.03.2017 20:00:00 13,3 1,8 8,3 15,3 11,5 8,1 8 5 26 14 O 1022,7 70 0 0,0
26.03.2017 19:00:00 15,4 1,1 13,7 17,2 11,1 8,1 18 10 27 14 OZO 1022,2 69 57 0,0
26.03.2017 18:00:00 16,7 1,4 17,4 18,7 10,6 8,0 13 7 18 10 OZO 1021,7 65 60 0,0
26.03.2017 17:00:00 16,6 -1,2 18,8 19,1 10,0 8,0 3 2 16 9 OZO 1022,0 66 60 0,0
26.03.2017 16:00:00 16,1 0,4 19,8 18,7 9,3 8,0 5 3 16 8 NNO 1022,3 55 60 0,0
26.03.2017 15:00:00 15,1 0,2 18,9 17,4 8,6 8,0 4 2 13 7 NO 1022,7 48 60 0,0
26.03.2017 14:00:00 13,7 1,1 20,1 15,5 8,1 8,0 5 3 13 7 NW 1023,4 44 60 0,0
26.03.2017 13:00:00 12,7 1,0 16,9 13,1 7,7 8,0 4 2 13 7 ZZO 1024,3 49 60 0,0
26.03.2017 12:00:00 11,1 1,3 15,4 10,4 7,5 8,0 6 3 12 6 NO 1024,8 51 60 0,0
26.03.2017 11:00:00 10,0 1,5 12,8 7,7 7,5 8,0 4 2 8 4 ZZW 1025,1 53 60 0,0
26.03.2017 10:00:00 7,7 1,1 10,1 5,4 7,6 8,0 5 3 7 4 N 1025,1 47 57 0,0
26.03.2017 09:00:00 4,2 1,1 4,3 4,2 7,9 8,0 5 3 10 5 ZZW 1024,6 34 2 0,0
26.03.2017 08:00:00 1,5 -0,2 -0,7 4,1 8,1 8,0 3 2 9 5 ZW 1024,5 28 0 0,0
26.03.2017 07:00:00 2,3 -0,6 -1,4 4,5 8,4 8,0 5 3 10 5 W 1024,3 43 0 0,0
26.03.2017 06:00:00 2,3 -0,3 -1,3 5,0 8,7 8,0 4 2 9 5 ZZW 1023,9 34 0 0,0
26.03.2017 05:00:00 3,1 -0,1 -0,1 5,5 9,0 8,0 6 3 8 5 ZW 1023,8 37 0 0,0
26.03.2017 04:00:00 2,9 0,3 0,4 6,0 9,3 8,0 7 4 11 6 ZZW 1023,4 33 0 0,0
26.03.2017 03:00:00 3,6 0,3 -0,1 6,7 9,6 8,0 6 3 8 5 ZW 1023,6 33 0 0,0
26.03.2017 02:00:00 4,9 0,5 0,7 7,4 9,8 8,0 0 0 11 6 N 1023,8 38 0 0,0
26.03.2017 01:00:00 8,8 0,9 2,3 8,2 10,1 8,0 8 4 11 6 NNW 1023,7 59 0 0,0
26.03.2017 00:00:00 9,6 0,6 1,6 9,1 10,3 8,0 5 3 12 7 WNW 1023,7 49 0 0,0
25.03.2017 23:00:00 11,0 0,3 4,2 10,1 10,5 8,0 6 3 21 11 NO 1023,9 58 0 0,0
25.03.2017 22:00:00 13,0 -0,5 10,0 11,0 10,6 8,0 13 7 26 14 ONO 1023,8 65 0 0,0
25.03.2017 21:00:00 14,1 -2,2 11,0 12,2 10,6 8,0 14 7 22 12 ONO 1023,4 70 0 0,0
25.03.2017 20:00:00 14,9 -3,2 12,2 13,7 10,5 8,0 18 10 30 16 O 1022,8 70 39 0,0
25.03.2017 19:00:00 16,1 -0,1 14,9 14,9 10,3 8,0 13 7 29 15 O 1022,4 62 60 0,0
25.03.2017 18:00:00 16,7 -2,5 16,7 15,6 9,9 8,0 12 6 31 17 O 1022,9 70 60 0,0
25.03.2017 17:00:00 16,4 -4,0 16,9 16,1 9,4 8,0 17 9 36 19 O 1023,9 65 60 0,0
25.03.2017 16:00:00 16,5 -2,6 17,9 16,2 8,9 8,0 23 13 35 19 ONO 1024,8 48 60 0,0
25.03.2017 15:00:00 15,8 -0,5 18,6 15,4 8,3 8,0 19 10 38 20 O 1025,7 40 60 0,0
25.03.2017 14:00:00 15,7 -0,3 18,2 14,0 7,8 8,0 19 11 35 19 O 1026,8 39 60 0,0
25.03.2017 13:00:00 14,6 0,2 17,7 11,9 7,5 8,0 24 13 38 21 O 1027,8 36 60 0,0
25.03.2017 12:00:00 13,0 2,2 15,8 10,1 7,3 8,0 18 10 26 14 O 1028,5 34 60 0,0
25.03.2017 11:00:00 10,2 2,7 13,1 7,5 7,2 8,0 8 4 13 7 O 1029,4 30 60 0,0
25.03.2017 10:00:00 8,4 2,6 10,0 4,9 7,4 8,0 3 1 6 4 NNW 1029,8 20 60 0,0
25.03.2017 09:00:00 4,5 2,8 3,7 3,6 7,7 8,0 2 1 9 5 ZW 1030,2 9 32 0,0
25.03.2017 08:00:00 0,5 -0,2 -0,9 3,8 7,9 8,0 4 2 8 4 ZW 1030,3 8 0 0,0
25.03.2017 07:00:00 0,4 -0,3 -1,3 4,1 8,2 8,0 4 2 7 4 ZW 1030,1 6 0 0,0
25.03.2017 06:00:00 1,1 0,3 -1,1 4,5 8,5 8,0 6 3 8 5 ZW 1030,1 7 0 0,0
25.03.2017 05:00:00 1,6 0,7 -1,8 4,9 8,9 8,0 3 2 6 3 ZW 1030,3 7 0 0,0
25.03.2017 04:00:00 2,6 1,3 -2,0 5,5 9,2 7,9 2 1 8 4 W 1030,3 9 0 0,0
25.03.2017 03:00:00 2,8 1,2 -0,6 6,2 9,5 7,9 4 2 6 3 W 1030,7 10 0 0,0
25.03.2017 02:00:00 4,9 2,3 -0,1 6,9 9,8 7,9 2 1 11 6 NO 1030,9 14 0 0,0
25.03.2017 01:00:00 7,0 2,9 0,4 7,7 10,1 7,9 4 2 14 8 O 1030,8 16 0 0,0
25.03.2017 00:00:00 8,4 3,1 4,5 8,5 10,4 7,9 11 6 16 9 O 1030,6 18 0 0,0
24.03.2017 23:00:00 8,3 3,2 1,3 9,5 10,6 7,9 5 3 13 7 O 1030,2 23 0 0,0
24.03.2017 22:00:00 10,3 3,0 5,7 10,7 10,7 7,9 9 5 25 14 O 1029,7 29 0 0,0
24.03.2017 21:00:00 11,2 3,9 6,2 12,0 10,8 7,9 8 4 15 8 ONO 1029,4 26 0 0,0
24.03.2017 20:00:00 12,2 4,0 7,7 13,6 10,7 7,9 11 6 19 10 O 1028,2 28 22 0,0
24.03.2017 19:00:00 14,1 3,9 12,9 15,0 10,4 7,9 14 8 23 12 O 1027,1 40 60 0,0
24.03.2017 18:00:00 14,5 3,7 15,2 16,0 10,0 7,9 16 9 25 14 O 1026,8 30 60 0,0
24.03.2017 17:00:00 14,6 3,9 16,8 16,2 9,5 7,9 12 6 24 13 OZO 1027,0 25 60 0,0
24.03.2017 16:00:00 13,5 4,4 16,0 15,5 9,1 7,9 10 6 26 14 O 1027,4 25 56 0,0
24.03.2017 15:00:00 12,7 4,8 16,3 14,1 8,8 7,9 13 7 28 15 OZO 1027,9 26 51 0,0
24.03.2017 14:00:00 11,0 4,2 13,8 12,4 8,5 7,9 13 7 26 14 OZO 1028,4 20 54 0,0
24.03.2017 13:00:00 10,3 4,0 13,1 10,4 8,4 7,9 18 10 26 14 ZO 1028,7 24 17 0,0
24.03.2017 12:00:00 9,8 4,2 11,1 9,4 8,3 7,9 15 8 29 16 O 1028,5 21 0 0,0
24.03.2017 11:00:00 9,1 3,8 10,2 8,8 8,3 7,9 18 10 28 15 OZO 1027,5 26 1 0,0
24.03.2017 10:00:00 8,8 3,8 9,6 7,9 8,3 7,9 14 7 26 14 OZO 1026,4 25 0 0,0
24.03.2017 09:00:00 8,1 4,0 8,0 7,5 8,4 7,9 16 9 27 15 O 1024,7 27 0 0,0
24.03.2017 08:00:00 8,1 4,2 7,5 7,6 8,5 7,9 16 9 25 14 O 1025,3 19 0 0,0
24.03.2017 07:00:00 8,3 4,5 7,7 7,6 8,6 7,9 18 10 29 16 O 1024,7 16 0 0,0
24.03.2017 06:00:00 8,7 4,8 7,9 7,6 8,7 7,9 16 8 23 12 O 1024,3 13 0 0,0
24.03.2017 05:00:00 8,5 5,4 7,8 7,6 8,9 7,9 12 7 17 9 O 1024,3 11 0 0,0
24.03.2017 04:00:00 8,5 5,3 7,7 7,4 9,1 7,9 14 7 22 12 O 1023,7 11 0 0,0
24.03.2017 03:00:00 8,3 5,6 7,3 7,3 9,4 7,9 8 4 15 8 O 1022,9 13 0 0,0
24.03.2017 02:00:00 8,3 5,0 4,6 7,7 9,6 7,9 10 5 20 11 O 1022,1 19 0 0,0
24.03.2017 01:00:00 8,9 5,6 4,4 8,2 9,9 7,9 9 5 17 9 O 1020,9 21 0 0,0
24.03.2017 00:00:00 8,3 4,9 2,8 9,0 10,1 7,9 3 1 6 4 ZZO 1020,0 39 0 0,0
23.03.2017 23:00:00 8,8 4,4 3,7 9,9 10,3 7,9 3 1 6 3 O 1019,0 61 0 0,0
23.03.2017 22:00:00 9,3 4,7 4,0 11,1 10,4 7,9 0 0 8 5 N 1018,2 51 0 0,0
23.03.2017 21:00:00 12,0 4,1 4,8 12,4 10,4 7,9 4 2 20 11 O 1017,3 70 0 0,0
23.03.2017 20:00:00 13,8 3,6 11,0 14,0 10,2 7,9 14 8 21 12 O 1016,2 70 30 0,0
23.03.2017 19:00:00 15,2 4,4 13,9 15,4 9,8 7,9 11 6 19 10 O 1015,5 70 54 0,0
23.03.2017 18:00:00 15,7 4,8 16,8 16,1 9,4 7,9 7 4 19 10 ZO 1015,4 70 60 0,0
23.03.2017 17:00:00 15,7 4,2 17,7 16,4 8,8 7,9 11 6 21 11 ZO 1015,3 69 60 0,0
23.03.2017 16:00:00 15,3 5,5 18,2 16,1 8,2 7,9 8 5 16 9 OZO 1015,1 50 60 0,0
23.03.2017 15:00:00 14,0 6,3 17,1 14,8 7,6 7,9 5 3 16 9 ZO 1015,7 30 60 0,0
23.03.2017 14:00:00 12,4 6,4 17,1 12,8 7,2 7,9 7 4 18 10 OZO 1016,0 23 60 0,0
23.03.2017 13:00:00 10,2 5,3 14,3 10,2 7,0 7,9 7 4 16 9 O 1016,2 17 35 0,0
23.03.2017 12:00:00 8,7 5,1 11,0 7,9 6,8 7,9 9 5 15 8 Z 1016,5 16 0 0,0
23.03.2017 11:00:00 7,8 5,3 9,3 6,3 6,9 7,9 3 2 6 3 O 1016,5 12 0 0,0
23.03.2017 10:00:00 5,5 4,4 6,2 5,0 7,0 7,9 3 1 6 4 NNW 1016,2 9 0 0,0
23.03.2017 09:00:00 3,5 3,0 3,7 4,0 7,2 7,9 5 3 8 4 ZZW 1016,0 7 0 0,0
23.03.2017 08:00:00 1,6 1,5 -0,5 4,1 7,4 7,9 6 4 8 4 ZZW 1015,3 7 0 0,0
23.03.2017 07:00:00 2,0 1,9 -1,0 4,7 7,6 7,9 7 4 10 5 ZZW 1014,8 8 0 0,0
23.03.2017 06:00:00 3,0 2,9 0,1 5,4 7,8 7,9 8 4 10 5 ZZW 1014,6 8 0 0,0
23.03.2017 05:00:00 3,9 3,7 -0,3 6,2 7,9 7,9 3 2 4 2 ZW 1014,3 9 0 0,0
23.03.2017 04:00:00 5,6 4,4 2,4 6,8 8,0 7,9 2 1 8 4 Z 1014,5 14 0 0,0
23.03.2017 03:00:00 7,1 4,6 4,8 7,3 8,1 7,9 6 4 11 6 OZO 1014,5 22 0 0,0
23.03.2017 02:00:00 7,5 4,9 6,8 7,5 8,2 7,9 8 4 13 7 O 1014,4 22 0 0,0
23.03.2017 01:00:00 - - - - - - - - - - - - - - -

tt = temperatuur
td = dauwpunt
tt 5cm = temperatuur 5cm
tt -5cm = temperatuur -5cm
tt -20cm = temperatuur -20cm
tt -100cm = temperatuur -100cm
ff = windsnelheid
fx = windstoten
dd = windrichting
ppp = luchtdruk
vv = zicht
sd = Zonneschijnduur
rr = neerslag

Weerstations in de omgeving